[keps] orb07284.amsat
Ray Hoad
r.hoad at att.net
Thu Oct 11 18:38:03 PDT 2007
SB KEPS @ AMSAT $ORB07284.O
Orbital Elements 07284.OSCAR
HR AMSAT ORBITAL ELEMENTS FOR OSCAR SATELLITES
FROM WA5QGD FORT WORTH,TX October 11, 2007
Send Subscribe/unsubscribe to KEPS at
http://www.amsat.org/mailman/listinfo/keps
BID: ORB07284.O
TO ALL RADIO AMATEURS BT
Satellite: AO-07
Catalog number: 07530
Epoch time: 07283.62150500
Element set: 0999
Inclination: 101.5039 deg
RA of node: 318.1869 deg
Eccentricity: 0.0012152
Arg of perigee: 031.5104 deg
Mean anomaly: 328.6689 deg
Mean motion: 12.53572611 rev/day
Decay rate: -2.8e-07 rev/day^2
Epoch rev: 50558
Checksum: 288
Satellite: AO-10
Catalog number: 14129
Epoch time: 07283.16761486
Element set: 0434
Inclination: 026.0816 deg
RA of node: 252.0717 deg
Eccentricity: 0.6058074
Arg of perigee: 063.2296 deg
Mean anomaly: 345.5243 deg
Mean motion: 02.05867494 rev/day
Decay rate: 8.9e-07 rev/day^2
Epoch rev: 18293
Checksum: 315
Satellite: UO-11
Catalog number: 14781
Epoch time: 07283.63157665
Element set: 0494
Inclination: 098.1853 deg
RA of node: 308.5253 deg
Eccentricity: 0.0009735
Arg of perigee: 154.4900 deg
Mean anomaly: 205.6812 deg
Mean motion: 14.79582782 rev/day
Decay rate: -1.43e-06 rev/day^2
Epoch rev: 26680
Checksum: 324
Satellite: RS-15
Catalog number: 23439
Epoch time: 07283.81425496
Element set: 0107
Inclination: 064.8174 deg
RA of node: 179.9298 deg
Eccentricity: 0.0155773
Arg of perigee: 169.9771 deg
Mean anomaly: 190.4312 deg
Mean motion: 11.27552637 rev/day
Decay rate: -3.9e-07 rev/day^2
Epoch rev: 52673
Checksum: 343
Satellite: FO-29
Catalog number: 24278
Epoch time: 07284.82801258
Element set: 609
Inclination: 098.5644 deg
RA of node: 228.8812 deg
Eccentricity: 0.0351300
Arg of perigee: 141.0438 deg
Mean anomaly: 221.6584 deg
Mean motion: 13.52932232 rev/day
Decay rate: -1.02e-06 rev/day^2
Epoch rev: 55067
Checksum: 301
Satellite: SO-33
Catalog number: 25509
Epoch time: 07282.41240724
Element set: 0038
Inclination: 031.4334 deg
RA of node: 299.9228 deg
Eccentricity: 0.0355257
Arg of perigee: 345.9528 deg
Mean anomaly: 013.1429 deg
Mean motion: 14.28179789 rev/day
Decay rate: 3.06e-06 rev/day^2
Epoch rev: 46759
Checksum: 329
Satellite: AO-40
Catalog number: 26609
Epoch time: 07282.20024460
Element set: 0951
Inclination: 006.7044 deg
RA of node: 116.7849 deg
Eccentricity: 0.7946103
Arg of perigee: 011.6796 deg
Mean anomaly: 359.5312 deg
Mean motion: 01.25584814 rev/day
Decay rate: -1.4e-07 rev/day^2
Epoch rev: 03187
Checksum: 298
Satellite: VO-52
Catalog number: 28650
Epoch time: 07283.75027712
Element set: 0751
Inclination: 097.8215 deg
RA of node: 351.8171 deg
Eccentricity: 0.0026293
Arg of perigee: 235.8966 deg
Mean anomaly: 123.9768 deg
Mean motion: 14.81364686 rev/day
Decay rate: -1.7e-07 rev/day^2
Epoch rev: 13152
Checksum: 326
Satellite: PO-63
Catalog number: 29712
Epoch time: 07284.75122699
Element set: 809
Inclination: 097.9105 deg
RA of node: 342.2315 deg
Eccentricity: 0.0015485
Arg of perigee: 109.9262 deg
Mean anomaly: 250.3613 deg
Mean motion: 14.79849946 rev/day
Decay rate: 3.27e-06 rev/day^2
Epoch rev: 4057
Checksum: 331
/EX
SB KEPS @ AMSAT $ORB07284.D
Orbital Elements 07284.MICROS
HR AMSAT ORBITAL ELEMENTS FOR THE MICROSATS
FROM WA5QGD FORT WORTH,TX October 11, 2007
Send Subscribe/unsubscribe to KEPS at
http://www.amsat.org/mailman/listinfo/keps
BID: ORB07284.D
TO ALL RADIO AMATEURS BT
Satellite: AO-16
Catalog number: 20439
Epoch time: 07284.51757399
Element set: 152
Inclination: 098.2070 deg
RA of node: 272.7222 deg
Eccentricity: 0.0010262
Arg of perigee: 196.4245 deg
Mean anomaly: 163.6603 deg
Mean motion: 14.31772242 rev/day
Decay rate: 1.6e-07 rev/day^2
Epoch rev: 92519
Checksum: 294
Satellite: LO-19
Catalog number: 20442
Epoch time: 07284.53656762
Element set: 77
Inclination: 098.1864 deg
RA of node: 281.9080 deg
Eccentricity: 0.0011480
Arg of perigee: 194.7501 deg
Mean anomaly: 165.3354 deg
Mean motion: 14.32011930 rev/day
Decay rate: -4.0e-07 rev/day^2
Epoch rev: 92534
Checksum: 292
Satellite: AO-27
Catalog number: 22825
Epoch time: 07283.92243738
Element set: 0800
Inclination: 098.3451 deg
RA of node: 248.8416 deg
Eccentricity: 0.0007552
Arg of perigee: 282.1646 deg
Mean anomaly: 077.8688 deg
Mean motion: 14.29219867 rev/day
Decay rate: 8.1e-07 rev/day^2
Epoch rev: 73202
Checksum: 332
Satellite: IO-26
Catalog number: 22826
Epoch time: 07284.50978818
Element set: 498
Inclination: 098.3398 deg
RA of node: 250.4272 deg
Eccentricity: 0.0008099
Arg of perigee: 278.5053 deg
Mean anomaly: 081.5212 deg
Mean motion: 14.29466381 rev/day
Decay rate: 3.0e-08 rev/day^2
Epoch rev: 73219
Checksum: 334
Satellite: PO-28
Catalog number: 22829
Epoch time: 07283.91908619
Element set: 0776
Inclination: 098.3278 deg
RA of node: 251.0107 deg
Eccentricity: 0.0008795
Arg of perigee: 248.7428 deg
Mean anomaly: 111.2809 deg
Mean motion: 14.30168541 rev/day
Decay rate: 5.2e-07 rev/day^2
Epoch rev: 73235
Checksum: 326
Satellite: GO-32
Catalog number: 25397
Epoch time: 07283.67579321
Element set: 422
Inclination: 098.4023 deg
RA of node: 325.7621 deg
Eccentricity: 0.0000428
Arg of perigee: 214.4413 deg
Mean anomaly: 145.6759 deg
Mean motion: 14.23131230 rev/day
Decay rate: -5.6e-07 rev/day^2
Epoch rev: 48058
Checksum: 289
Satellite: MO-46
Catalog number: 26548
Epoch time: 07283.75383675
Element set: 0918
Inclination: 064.5574 deg
RA of node: 185.1323 deg
Eccentricity: 0.0001201
Arg of perigee: 189.2297 deg
Mean anomaly: 170.8784 deg
Mean motion: 14.83180874 rev/day
Decay rate: 2.0e-08 rev/day^2
Epoch rev: 38067
Checksum: 330
Satellite: NO-44
Catalog number: 26931
Epoch time: 07284.79123650
Element set: 705
Inclination: 067.0534 deg
RA of node: 207.1173 deg
Eccentricity: 0.0006188
Arg of perigee: 251.2230 deg
Mean anomaly: 108.8203 deg
Mean motion: 14.29499302 rev/day
Decay rate: 2.15e-06 rev/day^2
Epoch rev: 31476
Checksum: 283
Satellite: SO-50
Catalog number: 27607
Epoch time: 07284.49073031
Element set: 428
Inclination: 064.5562 deg
RA of node: 091.9029 deg
Eccentricity: 0.0068212
Arg of perigee: 330.9642 deg
Mean anomaly: 028.7655 deg
Mean motion: 14.71291464 rev/day
Decay rate: -1.07e-06 rev/day^2
Epoch rev: 25823
Checksum: 304
Satellite: CO-55
Catalog number: 27844
Epoch time: 07283.47878996
Element set: 0141
Inclination: 098.7209 deg
RA of node: 290.2153 deg
Eccentricity: 0.0010495
Arg of perigee: 115.8618 deg
Mean anomaly: 244.3649 deg
Mean motion: 14.20535753 rev/day
Decay rate: 6.0e-07 rev/day^2
Epoch rev: 22184
Checksum: 326
Satellite: CO-57
Catalog number: 27848
Epoch time: 07283.51418129
Element set: 0099
Inclination: 098.7204 deg
RA of node: 289.4068 deg
Eccentricity: 0.0010193
Arg of perigee: 118.7518 deg
Mean anomaly: 241.4685 deg
Mean motion: 14.20351329 rev/day
Decay rate: 1.9e-07 rev/day^2
Epoch rev: 22182
Checksum: 318
Satellite: AO-51
Catalog number: 28375
Epoch time: 07284.63119606
Element set: 931
Inclination: 098.1016 deg
RA of node: 317.8871 deg
Eccentricity: 0.0083167
Arg of perigee: 189.1984 deg
Mean anomaly: 170.7689 deg
Mean motion: 14.40582262 rev/day
Decay rate: 1.0e-07 rev/day^2
Epoch rev: 17247
Checksum: 327
Satellite: CO-56
Catalog number: 28941
Epoch time: 07283.70675849
Element set: 0589
Inclination: 098.1168 deg
RA of node: 357.9585 deg
Eccentricity: 0.0210489
Arg of perigee: 222.3335 deg
Mean anomaly: 136.1527 deg
Mean motion: 15.43911328 rev/day
Decay rate: 1.6505e-04 rev/day^2
Epoch rev: 09123
Checksum: 344
Satellite: HO-59
Catalog number: 29484
Epoch time: 07284.48999934
Element set: 757
Inclination: 098.2683 deg
RA of node: 352.6194 deg
Eccentricity: 0.0177777
Arg of perigee: 205.9231 deg
Mean anomaly: 153.3068 deg
Mean motion: 15.59618737 rev/day
Decay rate: 4.2000e-04 rev/day^2
Epoch rev: 5915
Checksum: 372
Satellite: NO-61
Catalog number: 29664
Epoch time: 07284.77547826
Element set: 549
Inclination: 051.6279 deg
RA of node: 194.0693 deg
Eccentricity: 0.0010620
Arg of perigee: 093.8813 deg
Mean anomaly: 266.3393 deg
Mean motion: 16.01587721 rev/day
Decay rate: 6.3834e-04 rev/day^2
Epoch rev: 4677
Checksum: 348
Satellite: CP4
Catalog number: 31122
Epoch time: 07283.65029723
Element set: 0157
Inclination: 098.0764 deg
RA of node: 353.1347 deg
Eccentricity: 0.0086084
Arg of perigee: 027.4872 deg
Mean anomaly: 333.0802 deg
Mean motion: 14.55039670 rev/day
Decay rate: 5.50e-06 rev/day^2
Epoch rev: 02564
Checksum: 291
Satellite: CP3
Catalog number: 31128
Epoch time: 07283.69011803
Element set: 0153
Inclination: 098.0714 deg
RA of node: 352.2938 deg
Eccentricity: 0.0103353
Arg of perigee: 029.6728 deg
Mean anomaly: 331.0287 deg
Mean motion: 14.51870934 rev/day
Decay rate: -4.7e-07 rev/day^2
Epoch rev: 02558
Checksum: 293
Satellite: LIBERT
Catalog number: 31129
Epoch time: 07284.71315535
Element set: 429
Inclination: 098.0722 deg
RA of node: 353.2926 deg
Eccentricity: 0.0103087
Arg of perigee: 026.4782 deg
Mean anomaly: 334.1621 deg
Mean motion: 14.51964605 rev/day
Decay rate: 3.38e-06 rev/day^2
Epoch rev: 2571
Checksum: 287
/EX
SB KEPS @ AMSAT $ORB07284.W
Orbital Elements 07284.WEATHER
HR AMSAT ORBITAL ELEMENTS FOR WEATHER SATELLITES
FROM WA5QGD FORT WORTH,TX October 11, 2007
Send Subscribe/unsubscribe to KEPS at
http://www.amsat.org/mailman/listinfo/keps
BID: ORB07284.W
TO ALL RADIO AMATEURS BT
Satellite: NOAA-10
Catalog number: 16969
Epoch time: 07283.61848642
Element set: 0845
Inclination: 098.7434 deg
RA of node: 300.8565 deg
Eccentricity: 0.0012060
Arg of perigee: 188.1121 deg
Mean anomaly: 171.9848 deg
Mean motion: 14.27335935 rev/day
Decay rate: -6.1e-07 rev/day^2
Epoch rev: 09569
Checksum: 329
Satellite: NOAA-11
Catalog number: 19531
Epoch time: 07283.82694202
Element set: 0877
Inclination: 098.8103 deg
RA of node: 011.5379 deg
Eccentricity: 0.0012426
Arg of perigee: 062.8012 deg
Mean anomaly: 297.4432 deg
Mean motion: 14.14852039 rev/day
Decay rate: -2.56e-06 rev/day^2
Epoch rev: 98250
Checksum: 301
